Galesburg, IL

5:58 AM CDT on June 29, 2017 (GMT -0500)
Galesburg Municipal

Weather History for KGBG - April, 2014

Change the Weather History Date:

Saturday, April 12, 2014

  Actual Average Record
Temperature  
Mean Temperature 67 °F -  
Max Temperature 81 °F 61 °F 85 °F (1971)
Min Temperature 53 °F 39 °F 20 °F (1957)
Cooling Degree Days 2    
Growing Degree Days 17 (Base 50)    
Moisture  
Dew Point 51 °F    
Average Humidity 55    
Maximum Humidity 73    
Minimum Humidity 42    
Precipitation  
Precipitation 0.00 in - - ()
Sea Level Pressure  
Sea Level Pressure 29.78 in    
Wind  
Wind Speed 11 mph (SSE)    
Max Wind Speed 28 mph    
Max Gust Speed 33 mph    
Visibility 10 miles    
Events      
Averages and records for this station are not official NWS values.
T = Trace of Precipitation, MM = Missing Value Source: NWS Daily Summary

Daily Weather History Graph

Daily Weather History Graph

Search for Another Location

Airport or City:

Trip Planner

Search our weather history database for the weather conditions in past years. The results will help you decide how hot, cold, wet, or windy it might be!

Date:

Astronomy

Apr. 12, 2014 Rise Set
Actual Time 6:27 AM CDT 7:38 PM CDT
Civil Twilight 5:59 AM CDT 8:06 PM CDT
Nautical Twilight 5:25 AM CDT 8:40 PM CDT
Astronomical Twilight 4:49 AM CDT 9:16 PM CDT
Moon 5:15 PM CDT (4/12) 4:55 AM CDT (4/12)
Length of Visible Light 14h 07m
Length of Day
13h 10m
Waxing Gibbous, 93% of the Moon is Illuminated
Apr 12
Waxing Gibbous
Apr 15
Full
Apr 22
Last Quarter
Apr 29
New
May 6
First Quarter

Hourly Weather History & Observations

Time (CDT) Temp. Heat Index Dew Point Humidity Pressure Visibility Wind Dir Wind Speed Gust Speed Precip Events Conditions
12:15 AM 53.6 °F - 35.6 °F 51% 29.99 in 10.0 mi South 8.1 mph - N/A   Clear
12:35 AM 54.5 °F - 35.2 °F 48% 29.98 in 10.0 mi South 6.9 mph - N/A   Clear
12:55 AM 54.7 °F - 35.8 °F 49% 29.98 in 10.0 mi SSE 5.8 mph - N/A   Clear
1:15 AM 54.7 °F - 36.3 °F 50% 29.99 in 10.0 mi South 4.6 mph - N/A   Clear
1:35 AM 54.7 °F - 36.7 °F 51% 29.99 in 10.0 mi South 4.6 mph - N/A   Clear
1:48 AM 53.6 °F - 37.4 °F 54% 29.99 in 10.0 mi SSE 4.6 mph - N/A   Clear
1:55 AM 53.8 °F - 36.7 °F 52% 29.98 in 10.0 mi SSE 5.8 mph - N/A   Clear
2:15 AM 54.9 °F - 36.1 °F 49% 29.96 in 10.0 mi SSE 8.1 mph - N/A   Scattered Clouds
2:24 AM 53.6 °F - 37.4 °F 54% 29.96 in 10.0 mi SSE 5.8 mph - N/A   Scattered Clouds
2:35 AM 54.3 °F - 36.7 °F 51% 29.98 in 10.0 mi South 4.6 mph - N/A   Mostly Cloudy
2:55 AM 53.6 °F - 37.4 °F 54% 29.99 in 10.0 mi South 3.5 mph - N/A   Mostly Cloudy
3:04 AM 53.6 °F - 37.4 °F 54% 29.99 in 10.0 mi SSE 3.5 mph - N/A   Overcast
3:15 AM 54.0 °F - 36.9 °F 52% 29.99 in 10.0 mi SE 4.6 mph - N/A   Overcast
3:35 AM 54.0 °F - 36.9 °F 52% 29.98 in 10.0 mi SE 4.6 mph - N/A   Mostly Cloudy
3:55 AM 54.5 °F - 36.7 °F 51% 29.98 in 10.0 mi SE 5.8 mph - N/A   Mostly Cloudy
4:03 AM 55.4 °F - 37.4 °F 51% 29.97 in 10.0 mi SE 5.8 mph - N/A   Mostly Cloudy
4:15 AM 55.4 °F - 36.9 °F 50% 29.96 in 10.0 mi ESE 5.8 mph - N/A   Overcast
4:35 AM 55.8 °F - 36.7 °F 49% 29.95 in 10.0 mi ESE 6.9 mph - N/A   Mostly Cloudy
4:44 AM 55.4 °F - 37.4 °F 51% 29.94 in 10.0 mi ESE 8.1 mph - N/A   Scattered Clouds
4:55 AM 54.7 °F - 36.7 °F 51% 29.94 in 10.0 mi ESE 6.9 mph - N/A   Scattered Clouds
5:03 AM 55.4 °F - 37.4 °F 51% 29.93 in 10.0 mi SE 9.2 mph - N/A   Clear
5:15 AM 55.0 °F - 35.8 °F 48% 29.92 in 10.0 mi ESE 6.9 mph - N/A   Clear
5:23 AM 55.4 °F - 35.6 °F 47% 29.92 in 10.0 mi ESE 8.1 mph - N/A   Clear
5:35 AM 54.9 °F - 35.6 °F 48% 29.91 in 10.0 mi ESE 8.1 mph - N/A   Clear
5:43 AM 55.4 °F - 35.6 °F 47% 29.91 in 10.0 mi SE 9.2 mph - N/A   Clear
5:55 AM 55.4 °F - 36.3 °F 49% 29.91 in 10.0 mi SE 9.2 mph - N/A   Clear
6:03 AM 55.4 °F - 37.4 °F 51% 29.90 in 10.0 mi SE 8.1 mph 16.1 mph N/A   Clear
6:15 AM 55.4 °F - 37.8 °F 52% 29.90 in 10.0 mi SE 8.1 mph - N/A   Clear
6:35 AM 55.4 °F - 39.0 °F 54% 29.90 in 10.0 mi SE 6.9 mph - N/A   Mostly Cloudy
6:55 AM 56.5 °F - 41.0 °F 56% 29.90 in 10.0 mi SE 8.1 mph - N/A   Overcast
7:03 AM 57.2 °F - 42.8 °F 59% 29.90 in 10.0 mi SE 8.1 mph - N/A   Overcast
7:15 AM 56.8 °F - 43.2 °F 60% 29.90 in 10.0 mi SE 11.5 mph 17.3 mph N/A   Overcast
7:23 AM 55.4 °F - 44.6 °F 67% 29.90 in 10.0 mi SE 9.2 mph 17.3 mph N/A   Overcast
7:35 AM 56.3 °F - 44.6 °F 65% 29.90 in 10.0 mi SE 9.2 mph - N/A   Mostly Cloudy
7:43 AM 55.4 °F - 44.6 °F 67% 29.90 in 10.0 mi SE 8.1 mph - N/A   Mostly Cloudy
7:55 AM 56.8 °F - 46.2 °F 68% 29.90 in 10.0 mi SSE 9.2 mph - N/A   Overcast
8:15 AM 58.5 °F - 48.6 °F 70% 29.89 in 10.0 mi SSE 10.4 mph 16.1 mph N/A   Overcast
8:23 AM 59.0 °F - 48.2 °F 67% 29.89 in 10.0 mi SSE 11.5 mph 17.3 mph N/A   Mostly Cloudy
8:35 AM 60.4 °F - 50.2 °F 69% 29.89 in 10.0 mi SSE 13.8 mph 18.4 mph N/A   Overcast
8:43 AM 60.8 °F - 51.8 °F 72% 29.88 in 10.0 mi SSE 17.3 mph 21.9 mph N/A   Overcast
8:55 AM 61.5 °F - 51.3 °F 69% 29.88 in 10.0 mi SSE 17.3 mph 23.0 mph N/A   Mostly Cloudy
9:03 AM 62.6 °F - 51.8 °F 68% 29.88 in 10.0 mi SSE 10.4 mph 23.0 mph N/A   Scattered Clouds
9:15 AM 63.1 °F - 52.5 °F 68% 29.88 in 10.0 mi South 13.8 mph 20.7 mph N/A   Scattered Clouds
9:23 AM 64.4 °F - 53.6 °F 68% 29.87 in 10.0 mi South 17.3 mph 20.7 mph N/A   Clear
9:35 AM 64.4 °F - 53.6 °F 68% 29.87 in 10.0 mi South 12.7 mph 23.0 mph N/A   Clear
9:43 AM 66.2 °F - 53.6 °F 64% 29.87 in 10.0 mi South 13.8 mph 19.6 mph N/A   Clear
9:55 AM 66.7 °F - 55.0 °F 66% 29.86 in 10.0 mi South 13.8 mph 20.7 mph N/A   Clear
10:03 AM 68.0 °F - 55.4 °F 64% 29.86 in 10.0 mi South 15.0 mph 20.7 mph N/A   Clear
10:15 AM 68.0 °F - 55.8 °F 65% 29.85 in 10.0 mi South 18.4 mph 23.0 mph N/A   Clear
10:35 AM 69.3 °F - 56.3 °F 63% 29.84 in 10.0 mi South 17.3 mph 24.2 mph N/A   Clear
10:42 AM 69.8 °F - 57.2 °F 64% 29.83 in 10.0 mi South 17.3 mph 23.0 mph N/A   Clear
10:55 AM 72.3 °F - 57.0 °F 59% 29.83 in 10.0 mi South 13.8 mph 23.0 mph N/A   Clear
11:15 AM 73.4 °F - 57.2 °F 57% 29.82 in 10.0 mi SSW 21.9 mph 27.6 mph N/A   Clear
11:23 AM 73.4 °F - 57.2 °F 57% 29.82 in 10.0 mi South 18.4 mph 27.6 mph N/A   Scattered Clouds
11:35 AM 74.5 °F - 57.9 °F 56% 29.81 in 10.0 mi South 19.6 mph 26.5 mph N/A   Scattered Clouds
11:43 AM 73.4 °F - 57.2 °F 57% 29.81 in 10.0 mi South 23.0 mph 27.6 mph N/A   Scattered Clouds
11:55 AM 73.6 °F - 57.7 °F 58% 29.80 in 10.0 mi South 16.1 mph 26.5 mph N/A   Scattered Clouds
12:03 PM 75.2 °F - 57.2 °F 53% 29.80 in 10.0 mi South 18.4 mph 26.5 mph N/A   Mostly Cloudy
12:15 PM 74.3 °F - 58.5 °F 58% 29.80 in 10.0 mi South 19.6 mph 25.3 mph N/A   Overcast
12:35 PM 75.2 °F - 59.0 °F 57% 29.78 in 10.0 mi SSW 18.4 mph 23.0 mph N/A   Overcast
12:43 PM 75.2 °F - 59.0 °F 57% 29.77 in 10.0 mi South 16.1 mph - N/A   Overcast
12:55 PM 75.6 °F - 58.1 °F 55% 29.77 in 10.0 mi SSW 18.4 mph 26.5 mph N/A   Overcast
1:15 PM 76.6 °F - 58.3 °F 53% 29.75 in 10.0 mi South 17.3 mph 27.6 mph N/A   Overcast
1:23 PM 78.8 °F - 59.0 °F 51% 29.75 in 10.0 mi SSW 24.2 mph 29.9 mph N/A   Overcast
1:35 PM 77.4 °F - 58.6 °F 52% 29.74 in 10.0 mi SSW 20.7 mph 31.1 mph N/A   Overcast
1:43 PM 78.8 °F - 57.2 °F 47% 29.74 in 10.0 mi South 24.2 mph 33.4 mph N/A   Mostly Cloudy
1:55 PM 79.3 °F - 58.5 °F 49% 29.72 in 10.0 mi SSW 19.6 mph 32.2 mph N/A   Mostly Cloudy
2:03 PM 78.8 °F - 57.2 °F 47% 29.72 in 10.0 mi SSW 26.5 mph 32.2 mph N/A   Mostly Cloudy
2:15 PM 79.9 °F - 58.3 °F 48% 29.71 in 10.0 mi South 20.7 mph 25.3 mph N/A   Mostly Cloudy
2:22 PM 80.6 °F 80.8 °F 57.2 °F 45% 29.72 in 10.0 mi SSW 25.3 mph 32.2 mph N/A   Mostly Cloudy
2:35 PM 79.0 °F - 57.2 °F 47% 29.71 in 10.0 mi South 20.7 mph 26.5 mph N/A   Mostly Cloudy
2:43 PM 80.6 °F 80.8 °F 57.2 °F 45% 29.71 in 10.0 mi SSW 25.3 mph 29.9 mph N/A   Mostly Cloudy
2:55 PM 80.4 °F 80.8 °F 57.9 °F 46% 29.70 in 10.0 mi South 21.9 mph 29.9 mph N/A   Mostly Cloudy
3:03 PM 80.6 °F 80.8 °F 57.2 °F 45% 29.70 in 10.0 mi South 27.6 mph 31.1 mph N/A   Scattered Clouds
3:15 PM 80.6 °F 80.8 °F 57.4 °F 45% 29.69 in 10.0 mi South 21.9 mph 31.1 mph N/A   Scattered Clouds
3:23 PM 80.6 °F 80.8 °F 57.2 °F 45% 29.69 in 10.0 mi South 23.0 mph 31.1 mph N/A   Scattered Clouds
3:35 PM 79.9 °F - 57.2 °F 46% 29.69 in 10.0 mi South 21.9 mph 28.8 mph N/A   Scattered Clouds
3:44 PM 80.6 °F 80.8 °F 57.2 °F 45% 29.68 in 10.0 mi South 18.4 mph 28.8 mph N/A   Scattered Clouds
3:55 PM 80.6 °F 80.7 °F 57.0 °F 44% 29.68 in 10.0 mi SSW 26.5 mph 31.1 mph N/A   Scattered Clouds
4:03 PM 80.6 °F 80.8 °F 57.2 °F 45% 29.67 in 10.0 mi SSW 21.9 mph 31.1 mph N/A   Scattered Clouds
4:15 PM 81.0 °F 80.9 °F 56.7 °F 43% 29.67 in 10.0 mi South 18.4 mph 24.2 mph N/A   Scattered Clouds
4:23 PM 80.6 °F 80.8 °F 57.2 °F 45% 29.67 in 10.0 mi SSW 15.0 mph 27.6 mph N/A   Scattered Clouds
4:35 PM 79.7 °F - 56.1 °F 44% 29.67 in 10.0 mi SSW 21.9 mph 27.6 mph N/A   Scattered Clouds
4:43 PM 80.6 °F 80.5 °F 55.4 °F 42% 29.67 in 10.0 mi SSW 20.7 mph 27.6 mph N/A   Scattered Clouds
4:55 PM 80.4 °F 80.5 °F 56.3 °F 43% 29.67 in 10.0 mi South 15.0 mph 25.3 mph N/A   Mostly Cloudy
5:03 PM 80.6 °F 80.5 °F 55.4 °F 42% 29.67 in 10.0 mi South 18.4 mph 24.2 mph N/A   Scattered Clouds
5:15 PM 79.5 °F - 55.9 °F 44% 29.67 in 10.0 mi South 16.1 mph 23.0 mph N/A   Scattered Clouds
5:35 PM 79.0 °F - 55.9 °F 45% 29.66 in 10.0 mi South 16.1 mph 21.9 mph N/A   Clear
5:43 PM 78.8 °F - 55.4 °F 44% 29.66 in 10.0 mi South 17.3 mph 23.0 mph N/A   Scattered Clouds
5:55 PM 78.8 °F - 55.8 °F 45% 29.66 in 10.0 mi SSE 15.0 mph - N/A   Clear
6:03 PM 78.8 °F - 55.4 °F 44% 29.66 in 10.0 mi South 15.0 mph - N/A   Clear
6:15 PM 77.9 °F - 55.8 °F 46% 29.65 in 10.0 mi South 15.0 mph 19.6 mph N/A   Clear
6:35 PM 77.0 °F - 55.6 °F 47% 29.65 in 10.0 mi South 11.5 mph 20.7 mph N/A   Clear
6:55 PM 75.9 °F - 55.9 °F 50% 29.65 in 10.0 mi SSE 11.5 mph - N/A   Clear
7:03 PM 75.2 °F - 55.4 °F 50% 29.64 in 10.0 mi SSE 11.5 mph 16.1 mph N/A   Clear
7:15 PM 74.3 °F - 55.9 °F 53% 29.64 in 10.0 mi SSE 11.5 mph - N/A   Clear
7:23 PM 73.4 °F - 55.4 °F 53% 29.65 in 10.0 mi SSE 11.5 mph - N/A   Clear
7:35 PM 72.9 °F - 55.9 °F 55% 29.65 in 10.0 mi SSE 10.4 mph - N/A   Clear
7:43 PM 73.4 °F - 55.4 °F 53% 29.65 in 10.0 mi South 9.2 mph - N/A   Clear
7:55 PM 72.1 °F - 56.1 °F 57% 29.64 in 10.0 mi SSE 9.2 mph - N/A   Clear
8:03 PM 71.6 °F - 55.4 °F 57% 29.64 in 10.0 mi SSE 8.1 mph - N/A   Clear
8:15 PM 70.3 °F - 55.6 °F 59% 29.64 in 10.0 mi SE 5.8 mph - N/A   Clear
8:23 PM 69.8 °F - 55.4 °F 60% 29.64 in 10.0 mi SE 5.8 mph - N/A   Clear
8:35 PM 69.4 °F - 55.6 °F 61% 29.64 in 10.0 mi SE 6.9 mph - N/A   Clear
8:43 PM 69.8 °F - 55.4 °F 60% 29.64 in 10.0 mi SE 10.4 mph - N/A   Clear
8:55 PM 70.0 °F - 55.8 °F 61% 29.64 in 10.0 mi SSE 9.2 mph - N/A   Clear
9:03 PM 69.8 °F - 55.4 °F 60% 29.64 in 10.0 mi SSE 8.1 mph - N/A   Clear
9:15 PM 69.1 °F - 55.8 °F 62% 29.64 in 10.0 mi SSE 6.9 mph - N/A   Clear
9:23 PM 69.8 °F - 55.4 °F 60% 29.64 in 10.0 mi SSE 8.1 mph - N/A   Clear
9:35 PM 68.5 °F - 55.8 °F 64% 29.64 in 10.0 mi SSE 8.1 mph - N/A   Clear
9:43 PM 69.8 °F - 55.4 °F 60% 29.63 in 10.0 mi SSE 8.1 mph - N/A   Clear
9:55 PM 67.6 °F - 55.6 °F 65% 29.63 in 10.0 mi SSE 9.2 mph - N/A   Clear
10:15 PM 67.1 °F - 55.8 °F 67% 29.63 in 10.0 mi SSE 10.4 mph - N/A   Clear
10:23 PM 66.2 °F - 55.4 °F 68% 29.63 in 10.0 mi SSE 9.2 mph - N/A   Clear
10:35 PM 66.2 °F - 55.9 °F 69% 29.63 in 10.0 mi SSE 9.2 mph - N/A   Clear
10:42 PM 66.2 °F - 55.4 °F 68% 29.63 in 10.0 mi SSE 11.5 mph 16.1 mph N/A   Clear
10:55 PM 67.1 °F - 56.8 °F 70% 29.63 in 10.0 mi SSE 13.8 mph 18.4 mph N/A   Clear
11:03 PM 66.2 °F - 57.2 °F 73% 29.63 in 10.0 mi South 12.7 mph - N/A   Clear
11:15 PM 67.1 °F - 56.8 °F 70% 29.62 in 10.0 mi SSE 15.0 mph - N/A   Clear
11:23 PM 66.2 °F - 57.2 °F 73% 29.62 in 10.0 mi SSE 11.5 mph 19.6 mph N/A   Clear
11:35 PM 66.2 °F - 56.7 °F 71% 29.63 in 10.0 mi South 12.7 mph 18.4 mph N/A   Clear
11:55 PM 65.8 °F - 56.5 °F 72% 29.64 in 10.0 mi South 9.2 mph - N/A   Clear